KF0ZH Weather Reports


Display with metric or nautical units.
time (UTC)temp
F
wind
direction
speed
MPH
gust
MPH
rain 1hr
in
rain 24hr
in
rain mn
in
humidity
%
barometer
mb
20260905143456 69 33 0.0 7.0 0.00 0.00 0.00 99 1015.3
20260905143301 69 33 0.0 7.0 0.00 0.00 0.00 99 1015.3
20260905143135 69 59 0.0 5.0 0.00 0.00 0.00 99 1015.3
20260905142800 69 75 3.0 7.0 0.00 0.00 0.00 99 1015.4
20260905142420 69 59 0.0 5.0 0.00 0.00 0.00 99 1015.3
20260905142305 69 59 0.0 5.0 0.00 0.00 0.00 99 1015.3
20260905141803 69 53 3.0 6.0 0.00 0.00 0.00 99 1015.4
20260905141350 69 73 0.0 4.0 0.00 0.00 0.00 99 1015.3
20260905141300 69 73 0.0 4.0 0.00 0.00 0.00 99 1015.3
20260905135335 69 11 2.0 4.0 0.00 0.00 0.00 99 1015.4
20260905135301 69 11 2.0 4.0 0.00 0.00 0.00 99 1015.4
20260905134345 69 23 3.0 6.0 0.00 0.00 0.00 99 1015.4
20260905134303 69 23 3.0 6.0 0.00 0.00 0.00 99 1015.4
20260905133343 68 56 5.0 5.0 0.00 0.00 0.00 99 1015.5
20260905133301 68 56 5.0 5.0 0.00 0.00 0.00 99 1015.5
20260905133213 69 46 0.0 0.0 0.00 0.00 0.00 99 1015.6
20260905132802 69 46 0.0 0.0 0.00 0.00 0.00 99 1015.6
20260905132441 69 46 0.0 0.0 0.00 0.00 0.00 99 1015.5
20260905132334 69 46 0.0 0.0 0.00 0.00 0.00 99 1015.5
20260905132305 69 46 0.0 0.0 0.00 0.00 0.00 99 1015.5
20260905131540 68 46 0.0 0.0 0.00 0.00 0.00 99 1015.3
20260905131348 68 46 0.0 0.0 0.00 0.00 0.00 99 1015.2
20260905131336 68 46 0.0 0.0 0.00 0.00 0.00 99 1015.3
20260905131300 68 46 0.0 0.0 0.00 0.00 0.00 99 1015.3
20260905131158 68 46 0.0 0.0 0.00 0.00 0.00 99 1015.2
20260905130800 68 46 0.0 0.0 0.00 0.00 0.00 99 1015.2
20260905125839 68 46 0.0 0.0 0.00 0.00 0.00 99 1014.8
20260905125800 68 46 0.0 0.0 0.00 0.00 0.00 99 1014.8
20260905125352 68 46 0.0 0.0 0.00 0.00 0.00 99 1014.7
20260905125306 68 46 0.0 0.0 0.00 0.00 0.00 99 1014.7
20260905124800 68 46 0.0 0.0 0.00 0.00 0.00 99 1014.5
20260905123802 68 46 0.0 0.0 0.00 0.00 0.00 99 1014.1
20260905123340 68 42 0.0 3.0 0.00 0.00 0.00 99 1013.9
20260905123300 68 42 0.0 3.0 0.00 0.00 0.00 99 1013.9
20260905122307 68 19 0.0 0.0 0.00 0.00 0.00 99 1013.7
20260905121332 68 71 5.0 5.0 0.00 0.00 0.00 99 1014.0
20260905121300 68 71 5.0 5.0 0.00 0.00 0.00 99 1014.0
20260905120544 68 4 0.0 0.0 0.00 0.00 0.00 99 1014.2
20260905120402 68 4 0.0 0.0 0.00 0.00 0.00 99 1014.2
20260905120301 68 4 0.0 0.0 0.00 0.00 0.00 99 1014.2
20260905120235 68 4 0.0 0.0 0.00 0.00 0.00 99 1014.2
20260905115921 68 4 0.0 0.0 0.00 0.00 0.00 99 1014.2
20260905115835 68 4 0.0 0.0 0.00 0.00 0.00 99 1014.2
20260905115802 68 4 0.0 0.0 0.00 0.00 0.00 99 1014.2
20260905114410 68 42 0.0 6.0 0.00 0.00 0.00 99 1014.2
20260905114300 68 42 0.0 6.0 0.00 0.00 0.00 99 1014.2
20260905113051 68 29 2.0 4.0 0.00 0.00 0.00 99 1013.9
20260905112913 68 29 2.0 4.0 0.00 0.00 0.00 99 1013.9
20260905112802 68 29 2.0 4.0 0.00 0.00 0.00 99 1013.9
20260905112305 68 60 2.0 8.0 0.00 0.00 0.00 99 1013.7
20260905111910 68 47 3.0 7.0 0.00 0.00 0.00 99 1013.7
20260905111800 68 47 3.0 7.0 0.00 0.00 0.00 99 1013.7
20260905111714 68 105 4.0 9.0 0.00 0.00 0.00 99 1013.8
20260905111400 68 105 4.0 9.0 0.00 0.00 0.00 99 1013.8
20260905111300 68 105 4.0 9.0 0.00 0.00 0.00 99 1013.8
20260905110751 68 68 0.0 5.0 0.00 0.00 0.00 99 1013.8
20260905110333 68 68 0.0 5.0 0.00 0.00 0.00 99 1013.8
20260905110301 68 68 0.0 5.0 0.00 0.00 0.00 99 1013.8
20260905104842 68 358 3.0 3.0 0.00 0.00 0.00 99 1013.8
20260905104802 68 358 3.0 3.0 0.00 0.00 0.00 99 1013.8
20260905104714 68 59 4.0 7.0 0.00 0.00 0.00 99 1013.7
20260905104300 68 59 4.0 7.0 0.00 0.00 0.00 99 1013.7
20260905103618 68 75 3.0 5.0 0.00 0.00 0.00 99 1013.7
20260905103340 68 75 3.0 5.0 0.00 0.00 0.00 99 1013.7
20260905103300 68 75 3.0 5.0 0.00 0.00 0.00 99 1013.7
20260905102804 68 84 4.0 8.0 0.00 0.00 0.00 99 1013.6
20260905102339 68 36 4.0 8.0 0.00 0.00 0.00 99 1013.5
20260905102301 68 36 4.0 8.0 0.00 0.00 0.00 99 1013.5
20260905102045 68 104 0.0 7.0 0.00 0.00 0.00 99 1013.5
20260905101857 68 104 0.0 7.0 0.00 0.00 0.00 99 1013.5
20260905101800 68 104 0.0 7.0 0.00 0.00 0.00 99 1013.5
20260905100804 68 358 4.0 9.0 0.00 0.00 0.00 99 1013.2
20260905100338 68 71 4.0 9.0 0.00 0.00 0.00 99 1013.3
20260905100300 68 71 4.0 9.0 0.00 0.00 0.00 99 1013.3
20260905100152 68 81 0.0 4.0 0.00 0.00 0.00 99 1013.6
20260905100144 68 84 4.0 8.0 0.00 0.00 0.00 99 1013.2
20260905095836 68 81 0.0 4.0 0.00 0.00 0.00 99 1013.6
20260905095800 68 81 0.0 4.0 0.00 0.00 0.00 99 1013.6
20260905095359 68 61 6.0 8.0 0.00 0.00 0.00 99 1013.5
20260905095305 68 61 6.0 8.0 0.00 0.00 0.00 99 1013.5
20260905094842 68 84 4.0 8.0 0.00 0.00 0.00 99 1013.2
20260905094800 68 84 4.0 8.0 0.00 0.00 0.00 99 1013.2
20260905093523 68 87 9.0 10.0 0.00 0.00 0.00 99 1012.8
20260905093409 68 87 9.0 10.0 0.00 0.00 0.00 99 1012.8
20260905093301 68 87 9.0 10.0 0.00 0.00 0.00 99 1012.8
20260905093245 68 77 5.0 10.0 0.00 0.00 0.00 99 1012.7
20260905092913 68 77 5.0 10.0 0.00 0.00 0.00 99 1012.7
20260905092800 68 77 5.0 10.0 0.00 0.00 0.00 99 1012.7
20260905092332 68 75 0.0 5.0 0.00 0.00 0.00 99 1012.8
20260905092301 68 75 0.0 5.0 0.00 0.00 0.00 99 1012.8
20260905092153 68 32 0.0 3.0 0.00 0.00 0.00 99 1012.8
20260905091851 68 32 0.0 3.0 0.00 0.00 0.00 99 1012.8
20260905091803 68 32 0.0 3.0 0.00 0.00 0.00 99 1012.8
20260905091630 68 82 3.0 4.0 0.00 0.00 0.00 99 1012.9
20260905091301 68 82 3.0 4.0 0.00 0.00 0.00 99 1012.9
20260905091217 68 60 0.0 7.0 0.00 0.00 0.00 99 1013.0
20260905090807 68 60 0.0 7.0 0.00 0.00 0.00 99 1013.0
20260905090413 68 23 0.0 7.0 0.00 0.00 0.00 99 1013.1
20260905090332 68 23 0.0 7.0 0.00 0.00 0.00 99 1013.1
20260905090301 68 23 0.0 7.0 0.00 0.00 0.00 99 1013.1
20260905085539 68 85 0.0 4.0 0.00 0.00 0.00 99 1013.4
20260905085453 68 85 0.0 4.0 0.00 0.00 0.00 99 1013.4
20260905085336 68 85 0.0 4.0 0.00 0.00 0.00 99 1013.4
20260905085301 68 85 0.0 4.0 0.00 0.00 0.00 99 1013.4
20260905084834 68 54 0.0 6.0 0.00 0.00 0.00 99 1013.5
20260905084800 68 54 0.0 6.0 0.00 0.00 0.00 99 1013.5
20260905084300 68 1 0.0 0.0 0.00 0.00 0.00 99 1013.4
20260905083818 68 25 0.0 6.0 0.00 0.00 0.00 99 1013.2
20260905083730 68 25 0.0 6.0 0.00 0.00 0.00 99 1013.2
20260905083345 68 25 0.0 6.0 0.00 0.00 0.00 99 1013.2
20260905083301 68 25 0.0 6.0 0.00 0.00 0.00 99 1013.2
20260905081800 67 85 6.0 7.0 0.00 0.00 0.00 99 1013.2
20260905081636 67 42 4.0 6.0 0.00 0.00 0.00 99 1013.2
20260905081402 67 42 4.0 6.0 0.00 0.00 0.00 99 1013.2
20260905081302 67 42 4.0 6.0 0.00 0.00 0.00 99 1013.2
20260905080800 67 21 6.0 7.0 0.00 0.00 0.00 99 1013.3
20260905075210 68 66 2.0 7.0 0.00 0.00 0.00 99 1013.5
20260905073338 68 66 2.0 7.0 0.00 0.00 0.00 99 1013.5
20260905073300 68 66 2.0 7.0 0.00 0.00 0.00 99 1013.5
20260905071832 68 33 0.0 7.0 0.00 0.00 0.00 99 1013.4
20260905071800 68 33 0.0 7.0 0.00 0.00 0.00 99 1013.4
20260905071117 68 61 2.0 6.0 0.00 0.00 0.00 99 1013.4
20260905070841 68 61 2.0 6.0 0.00 0.00 0.00 99 1013.4
20260905070800 68 61 2.0 6.0 0.00 0.00 0.00 99 1013.4
20260905070707 68 59 0.0 5.0 0.00 0.00 0.00 99 1013.6
20260905070338 68 59 0.0 5.0 0.00 0.00 0.00 99 1013.6
20260905070300 68 59 0.0 5.0 0.00 0.00 0.00 99 1013.6
20260905064650 69 33 3.0 6.0 0.00 0.00 0.00 98 1013.5
20260905064335 69 33 3.0 6.0 0.00 0.00 0.00 98 1013.5
20260905064300 69 33 3.0 6.0 0.00 0.00 0.00 98 1013.5
20260905063305 69 28 0.0 0.0 0.00 0.00 0.00 97 1013.4
20260905062619 69 28 0.0 2.0 0.00 0.00 0.00 96 1013.4
20260905062403 69 28 0.0 2.0 0.00 0.00 0.00 96 1013.4
20260905062301 69 28 0.0 2.0 0.00 0.00 0.00 96 1013.4
20260905061800 69 355 0.0 0.0 0.00 0.00 0.00 96 1013.3
20260905060800 70 9 0.0 0.0 0.00 0.00 0.00 95 1013.3
20260905060333 70 9 0.0 2.0 0.00 0.00 0.00 95 1013.3
20260905060302 70 9 0.0 2.0 0.00 0.00 0.00 95 1013.3
20260905055804 70 4 0.0 0.0 0.00 0.00 0.00 94 1013.3
20260905055301 70 358 3.0 5.0 0.00 0.00 0.00 94 1013.2
20260905053408 71 47 0.0 6.0 0.00 0.00 0.00 93 1013.1
20260905053333 71 47 0.0 6.0 0.00 0.00 0.00 93 1013.1
20260905053300 71 47 0.0 6.0 0.00 0.00 0.00 93 1013.1
20260905050847 71 21 0.0 0.0 0.00 0.00 0.00 92 1012.9
20260905050800 71 21 0.0 0.0 0.00 0.00 0.00 92 1012.9
20260905050412 72 11 0.0 0.0 0.00 0.00 0.00 92 1012.9
20260905050335 72 11 0.0 0.0 0.00 0.00 0.00 92 1012.9
20260905050302 72 11 0.0 0.0 0.00 0.00 0.00 92 1012.9
20260905044800 72 112 3.0 7.0 0.00 0.00 0.00 91 1012.8
20260905043800 72 122 0.0 7.0 0.00 0.00 0.00 90 1012.6
20260905042809 73 78 5.0 7.0 0.00 0.00 0.00 89 1012.8
20260905042301 73 11 5.0 5.0 0.00 0.00 0.00 89 1013.0
20260905041332 73 56 5.0 7.0 0.00 0.00 0.00 88 1012.8
20260905041300 73 56 5.0 7.0 0.00 0.00 0.00 88 1012.8
20260905034800 74 9 3.0 8.0 0.00 0.00 0.00 86 1012.9
20260905034343 74 64 7.0 8.0 0.00 0.00 0.00 86 1012.8
20260905034311 74 64 7.0 8.0 0.00 0.00 0.00 86 1012.8
20260905033800 74 68 3.0 7.0 0.00 0.00 0.00 86 1012.8
20260905033329 75 102 0.0 5.0 0.00 0.00 0.00 85 1012.7
20260905031800 75 56 0.0 5.0 0.00 0.00 0.00 84 1012.7
20260905024304 77 64 5.0 10.0 0.00 0.00 0.00 81 1012.3
20260905022340 79 19 0.0 6.0 0.00 0.00 0.00 79 1011.9
20260905022300 79 19 0.0 6.0 0.00 0.00 0.00 79 1011.9
20260905021801 79 63 4.0 6.0 0.00 0.00 0.00 79 1011.8
20260905015836 80 47 0.0 6.0 0.00 0.00 0.00 79 1011.5
20260905015337 80 47 0.0 6.0 0.00 0.00 0.00 79 1011.5
20260905013808 80 347 0.0 5.0 0.00 0.00 0.00 77 1011.5
20260905013301 81 36 3.0 3.0 0.00 0.00 0.00 76 1011.4
20260905012800 81 5 0.0 5.0 0.00 0.00 0.00 76 1011.4
20260905011801 81 35 4.0 6.0 0.00 0.00 0.00 76 1011.2
20260905010808 81 43 0.0 5.0 0.00 0.00 0.00 75 1011.1
20260905010300 81 334 0.0 7.0 0.00 0.00 0.00 75 1011.0
20260905005840 81 358 3.0 7.0 0.00 0.00 0.00 74 1011.0
20260905005800 81 358 3.0 7.0 0.00 0.00 0.00 74 1011.0
20260905004800 81 337 0.0 6.0 0.00 0.00 0.00 74 1011.0
20260905004300 81 30 3.0 7.0 0.00 0.00 0.00 73 1011.0
20260905003800 82 50 0.0 6.0 0.00 0.00 0.00 73 1011.0
20260905003331 82 19 4.0 7.0 0.00 0.00 0.00 73 1011.0
20260905003300 82 19 4.0 7.0 0.00 0.00 0.00 73 1011.0
20260905002834 82 12 3.0 5.0 0.00 0.00 0.00 73 1011.0
20260905002802 82 12 3.0 5.0 0.00 0.00 0.00 73 1011.0
20260905001800 83 358 1.0 7.0 0.00 0.00 0.00 73 1011.1
20260905001300 83 88 0.0 4.0 0.00 0.00 0.00 73 1011.0
20260904234801 83 22 0.0 7.0 0.00 0.00 0.00 72 1011.0
20260904234302 84 28 3.0 4.0 0.00 0.00 0.00 73 1011.0
20260904232800 83 18 3.0 6.0 0.00 0.00 0.00 72 1010.9
20260904231800 84 123 3.0 6.0 0.00 0.00 0.00 72 1010.8
20260904231300 84 313 4.0 7.0 0.00 0.00 0.00 72 1010.8
20260904230805 84 9 0.0 6.0 0.00 0.00 0.00 72 1010.7
20260904225800 84 23 1.0 9.0 0.00 0.00 0.00 71 1010.6
20260904225358 84 291 3.0 3.0 0.00 0.00 0.00 71 1010.5
20260904225313 84 291 3.0 3.0 0.00 0.00 0.00 71 1010.5
20260904224800 84 345 6.0 7.0 0.00 0.00 0.00 70 1010.6
20260904224303 84 320 4.0 8.0 0.00 0.00 0.00 70 1010.6
20260904223805 84 16 0.0 7.0 0.00 0.00 0.00 71 1010.5
20260904223300 84 324 0.0 7.0 0.00 0.00 0.00 72 1010.5
20260904222331 84 354 6.0 9.0 0.00 0.00 0.00 70 1010.4
20260904222300 84 354 6.0 9.0 0.00 0.00 0.00 70 1010.4
20260904221800 84 358 0.0 8.0 0.00 0.00 0.00 71 1010.4
20260904220801 84 330 5.0 9.0 0.00 0.00 0.00 71 1010.3
20260904220305 84 336 7.0 7.0 0.00 0.00 0.00 71 1010.2
20260904215800 84 82 3.0 8.0 0.00 0.00 0.00 71 1010.2
20260904215301 84 25 3.0 6.0 0.00 0.00 0.00 71 1010.1
20260904214800 84 71 0.0 7.0 0.00 0.00 0.00 73 1010.1
20260904213302 83 350 5.0 7.0 0.00 0.00 0.00 74 1010.1
20260904212302 83 45 5.0 8.0 0.00 0.00 0.00 75 1010.0
20260904211800 83 35 0.0 7.0 0.00 0.00 0.00 75 1010.1
20260904210833 83 30 0.0 8.0 0.00 0.00 0.00 76 1010.1
20260904210801 83 30 0.0 8.0 0.00 0.00 0.00 76 1010.1
20260904205802 83 343 6.0 8.0 0.00 0.00 0.00 76 1010.2
20260904205301 83 1 0.0 8.0 0.00 0.00 0.00 76 1010.3
20260904204800 83 22 4.0 4.0 0.00 0.00 0.00 77 1010.2
20260904204300 83 46 1.0 6.0 0.00 0.00 0.00 77 1010.3
20260904203800 83 22 5.0 6.0 0.00 0.00 0.00 79 1010.3
20260904203300 82 358 3.0 7.0 0.00 0.00 0.00 78 1010.3
20260904202300 82 5 4.0 7.0 0.00 0.00 0.00 78 1010.2
20260904201759 82 32 0.0 7.0 0.00 0.00 0.00 80 1010.2
20260904201300 82 331 5.0 9.0 0.00 0.00 0.00 78 1010.2
20260904200804 82 21 2.0 8.0 0.00 0.00 0.00 80 1010.3
20260904200300 82 319 6.0 12.0 0.00 0.00 0.00 79 1010.2
20260904195759 82 358 4.0 10.0 0.00 0.00 0.00 79 1010.2
20260904195300 82 49 6.0 9.0 0.00 0.00 0.00 80 1010.3
20260904194802 82 358 3.0 10.0 0.00 0.00 0.00 80 1010.3
20260904194259 82 336 10.0 11.0 0.00 0.00 0.00 80 1010.4
20260904192807 81 70 4.0 9.0 0.00 0.00 0.00 82 1010.3
20260904192300 81 118 6.0 10.0 0.00 0.00 0.00 81 1010.3
20260904191759 81 7 6.0 11.0 0.00 0.00 0.00 81 1010.3
20260904191316 81 358 4.0 7.0 0.00 0.00 0.00 83 1010.3
20260904190831 81 36 3.0 7.0 0.00 0.00 0.00 83 1010.4
20260904190759 81 36 3.0 7.0 0.00 0.00 0.00 83 1010.4
20260904185300 80 105 6.0 11.0 0.00 0.00 0.00 85 1010.4
20260904184301 81 23 10.0 17.0 0.00 0.00 0.00 83 1010.3
20260904180302 81 330 10.0 14.0 0.00 0.00 0.00 84 1010.3
20260904175857 81 358 1.0 12.0 0.00 0.00 0.00 84 1010.4
20260904175812 81 358 1.0 12.0 0.00 0.00 0.00 84 1010.4
20260904175306 81 326 5.0 11.0 0.00 0.00 0.00 84 1010.3
20260904174307 80 336 7.0 9.0 0.00 0.00 0.00 85 1010.3
20260904173803 80 357 12.0 12.0 0.00 0.00 0.00 86 1010.3
20260904172305 80 1 0.0 9.0 0.00 0.00 0.00 87 1010.1
20260904165300 81 7 5.0 9.0 0.00 0.00 0.00 87 1009.8
20260904164759 81 324 9.0 11.0 0.00 0.00 0.00 88 1009.9
20260904164300 81 312 6.0 11.0 0.00 0.00 0.00 85 1009.9
20260904163800 81 341 6.0 10.0 0.00 0.00 0.00 86 1009.8
20260904163259 82 351 9.0 11.0 0.00 0.00 0.00 85 1009.7
20260904161304 83 350 5.0 9.0 0.00 0.00 0.00 83 1009.5
20260904160259 83 330 6.0 6.0 0.00 0.00 0.00 83 1009.3
20260904155759 82 324 4.0 8.0 0.00 0.04 0.00 83 1009.4
20260904155306 82 8 0.0 5.0 0.00 0.04 0.00 84 1009.4
20260904154817 82 329 0.0 6.0 0.00 0.04 0.00 84 1009.4
20260904154300 82 289 0.0 5.0 0.00 0.04 0.00 85 1009.4
20260904152306 82 1 0.0 3.0 0.00 0.04 0.00 84 1009.2
20260904151835 82 317 2.0 6.0 0.00 0.04 0.00 84 1009.2
20260904150759 81 268 0.0 0.0 0.00 0.04 0.00 86 1009.0
20260904150334 81 268 0.0 0.0 0.00 0.04 0.00 87 1009.0
20260904150259 81 268 0.0 0.0 0.00 0.04 0.00 87 1009.0
20260904145331 80 274 4.0 4.0 0.00 0.04 0.00 88 1008.8
20260904145300 80 274 4.0 4.0 0.00 0.04 0.00 88 1008.8
20260904144759 80 16 0.0 2.0 0.00 0.04 0.00 90 1008.9
20260904144259 80 333 0.0 4.0 0.00 0.04 0.00 89 1008.8